Showing default

IPM 2/BREEZE-M, 47242

Orbit data source: Space-Track

IPM 2/BREEZE-M, 47242 is a payload satellite owned by Khrunichev (CIS) in GEO that was launched on Mon, 14 Dec 2020 UTC via an ANGARA A5 launch vehicle from the Plesetsk Missile And Space Complex (PKMTR). Payload-class satellites include a variety of spacecraft equipped with specific instruments for various scientific and technological missions. These include communications satellites like Starlink; space stations such as the ISS; scientific satellites like the Hubble; Earth observation satellites from companies like Planet Labs, Umbra, and HawkEye 360; GPS; miniature CubeSats for education and research; and military/defense satellites.

Loading next visibility...
Identifier
47242, 2020-097A
Orbit
GEO
Country
Flag of CISCIS
Related business
Manufacturer
Khrunichev
Mission
Operational spacecraft
Bus & Motor
GVM, Unknown motor
Mass
~4,000 kg wet, 2,400 kg dry
Launch date (UTC)
2020-12-14 (6 years ago)
Launch vehicle
ANGARA A5
Launch site
Plesetsk Missile And Space Complex (PKMTR)
Object type
Payload
Rocket body
Debris
Shape & HBR
Unknown
Radar Cross Section
Large (>1 m²)

Expand to show TLE details & history
Last TLE update: 3 days ago

TLE from 3 days ago
0 IPM 2/BREEZE-M
1 47242U 20097A   26170.58717454 -.00000118  00000-0  00000+0 0  9994
2 47242   5.3676  76.6938 0083441 279.6057  79.2426  0.95298248 19291
Epoch: 2026-06-19T14:05Z
TLE epoch observation values (Epoch: 2026-06-19T14:05:31.880Z)
Latitude
0.00001°
Longitude
-42.70073°
Altitude
37,176.465 km
Speed
3.027 km/s
True Right ascension
05h 05m 59s
True Declination
0° 00' 00"
Sunlit
Object was in daylight at epoch
Visualization orbit readout
Latitude
Unknown
Longitude
Unknown
Altitude
Unknown
Speed
Unknown
Apparent Right ascension
Unknown
Apparent Declination
Unknown
Sunlit
N/A
Visualization observer readout
Local Sidereal Time
21:31:12
Azimuth
Unknown
Elevation
Unknown
Doppler factor
Unknown
Orbital elements
Apogee altitude
37,606.146 km
Perigee altitude
36,878.201 km
Semi-major axis
43,620.31 km
Eccentricity
0.00834
Inclination
5.3676°
RAAN
76.6938°
Arg. of periapsis
279.6057°
True anomaly
80.18375°
Mean anomaly
79.2426°
Eccentric anomaly
79.713°
Mean motion
0.23824 °/min
Orbital period
1,511.1 mins
BSTAR
0
Loading maneuver chart data...
Computing Atmospheric mass density...
Loading historical data...
Loading historical data...
Loading historical data...
Loading historical data...
Loading historical data...
Loading historical data...
Loading historical data...
Other satellites on launch #97 in the year 2020 (2020-12-14 UTC)

Documentation

Showing up to 5 results
|